timestamp,surface_pressure_avg,surface_temp_avg,battery_voltage,lat,long
2020-12-19 00:09:01+00:00,252.6647,4.6,12.73,47.84626,-54.09684
2020-12-19 00:19:01+00:00,263.7547,4.55,12.73,47.84626,-54.09684
2020-12-19 00:29:01+00:00,272.233,4.14,12.73,47.84626,-54.09684
2020-12-19 00:39:01+00:00,276.3247,3.95,12.73,47.84626,-54.09684
2020-12-19 00:49:01+00:00,285.028,4.74,12.73,47.84626,-54.09684
2020-12-19 00:59:01+00:00,296.6364,4.78,12.73,47.84626,-54.09684
2020-12-19 01:09:01+00:00,303.303,4.7,12.73,47.84626,-54.09684
2020-12-19 01:19:01+00:00,308.0181,4.75,12.65,47.84626,-54.09684
2020-12-19 01:29:01+00:00,314.4747,4.8,12.65,47.84626,-54.09684
2020-12-19 01:39:01+00:00,314.7946,4.8,12.65,47.84626,-54.09684
2020-12-19 01:49:01+00:00,316.483,4.85,12.65,47.84626,-54.09684
2020-12-19 01:59:01+00:00,322.468,4.87,12.65,47.84626,-54.09684
2020-12-19 02:09:01+00:00,327.2762,4.8,12.65,47.84626,-54.09684
2020-12-19 02:19:01+00:00,324.8729,4.8,12.65,47.84626,-54.09684
2020-12-19 02:29:01+00:00,326.303,4.83,12.65,47.84626,-54.09684
2020-12-19 02:39:01+00:00,331.6863,4.8,12.65,47.84626,-54.09684
2020-12-19 02:49:01+00:00,331.4962,4.8,12.65,47.84626,-54.09684
2020-12-19 02:59:01+00:00,326.8246,4.81,12.65,47.84626,-54.09684
2020-12-19 03:09:01+00:00,332.5363,4.84,12.65,47.84626,-54.09684
2020-12-19 03:19:01+00:00,333.1547,4.7,12.65,47.84626,-54.09684
2020-12-19 03:29:01+00:00,328.298,4.7,12.65,47.84626,-54.09684
2020-12-19 03:39:01+00:00,329.9996,4.78,12.65,47.84626,-54.09684
2020-12-19 03:49:01+00:00,334.3113,4.73,12.65,47.84626,-54.09684
2020-12-19 03:59:01+00:00,331.5963,4.7,12.65,47.84626,-54.09684
2020-12-19 04:09:01+00:00,328.2579,4.8,12.65,47.84626,-54.09684
2020-12-19 04:19:01+00:00,330.4781,4.8,12.65,47.84626,-54.09684
2020-12-19 04:29:01+00:00,328.3947,4.8,12.65,47.84626,-54.09684
2020-12-19 04:39:01+00:00,322.538,4.79,12.65,47.84626,-54.09684
2020-12-19 04:49:01+00:00,319.5845,4.8,12.65,47.84626,-54.09684
2020-12-19 04:59:01+00:00,313.9547,4.8,12.65,47.84626,-54.09684
2020-12-19 05:09:01+00:00,306.2997,4.74,12.65,47.84626,-54.09684
2020-12-19 05:19:01+00:00,300.788,4.7,12.65,47.84626,-54.09684
2020-12-19 05:29:01+00:00,296.3597,4.61,12.65,47.84626,-54.09684
2020-12-19 05:39:01+00:00,287.2513,4.6,12.65,47.84626,-54.09684
2020-12-19 05:49:01+00:00,275.3781,4.64,12.65,47.84626,-54.09684
2020-12-19 05:59:01+00:00,268.71299999999997,4.04,12.65,47.84626,-54.09684
2020-12-19 06:09:01+00:00,260.9447,4.2,12.65,47.84626,-54.09684
2020-12-19 06:19:01+00:00,252.4698,4.69,12.65,47.84626,-54.09684
2020-12-19 06:29:01+00:00,245.3714,4.7,12.65,47.84626,-54.09684
2020-12-19 06:39:01+00:00,238.9831,4.5,12.65,47.84626,-54.09684
2020-12-19 06:49:01+00:00,232.5981,4.52,12.65,47.84626,-54.09684
2020-12-19 06:59:01+00:00,226.6064,4.7,12.65,47.84626,-54.09684
2020-12-19 07:09:01+00:00,221.1081,4.66,12.65,47.84626,-54.09684
2020-12-19 07:19:01+00:00,215.3031,4.6,12.65,47.84626,-54.09684
2020-12-19 07:29:01+00:00,208.7365,4.6,12.65,47.84626,-54.09684
2020-12-19 07:39:01+00:00,205.4231,4.6,12.65,47.84626,-54.09684
2020-12-19 07:49:01+00:00,203.5014,4.64,12.65,47.84626,-54.09684
2020-12-19 07:59:01+00:00,201.7348,4.63,12.65,47.84626,-54.09684
2020-12-19 08:09:01+00:00,203.1081,4.6,12.65,47.84626,-54.09684
2020-12-19 08:19:01+00:00,203.9081,4.6,12.65,47.84626,-54.09684
2020-12-19 08:29:01+00:00,201.2298,4.6,12.65,47.84626,-54.09684
2020-12-19 08:39:01+00:00,204.7681,4.6,12.65,47.84626,-54.09684
2020-12-19 08:49:01+00:00,212.4014,4.6,12.65,47.84626,-54.09684
2020-12-19 08:59:01+00:00,209.9981,4.6,12.65,47.84626,-54.09684
2020-12-19 09:09:01+00:00,206.7498,4.6,12.65,47.84626,-54.09684
2020-12-19 09:19:01+00:00,212.3815,4.6,12.65,47.84626,-54.09684
2020-12-19 09:29:01+00:00,219.8714,4.6,12.65,47.84626,-54.09684
2020-12-19 09:39:01+00:00,220.1181,4.3,12.65,47.84626,-54.09684
2020-12-19 09:49:01+00:00,223.6448,4.35,12.65,47.84626,-54.09684
2020-12-19 09:59:01+00:00,229.5264,4.5,12.65,47.84626,-54.09684
2020-12-19 10:09:01+00:00,233.2364,4.5,12.65,47.84626,-54.09684
2020-12-19 10:19:01+00:00,235.2148,4.5,12.65,47.84626,-54.09684
2020-12-19 10:29:01+00:00,238.458,4.4,12.65,47.84626,-54.09684
2020-12-19 10:39:01+00:00,241.4281,4.36,12.65,47.84626,-54.09684
2020-12-19 10:49:01+00:00,242.8214,4.3,12.65,47.84626,-54.09684
2020-12-19 10:59:01+00:00,247.0214,4.3,12.65,47.84626,-54.09684
2020-12-19 11:09:01+00:00,254.6364,4.38,12.65,47.84626,-54.09684
2020-12-19 11:19:01+00:00,259.5298,4.3,12.65,47.84626,-54.09684
2020-12-19 11:29:01+00:00,260.3864,4.31,12.65,47.84626,-54.09684
2020-12-19 11:39:01+00:00,264.0031,4.39,12.65,47.84626,-54.09684
2020-12-19 11:49:01+00:00,270.7714,4.4,12.65,47.84626,-54.09684
2020-12-19 11:59:01+00:00,272.5247,4.43,12.65,47.84626,-54.09684
2020-12-19 12:09:01+00:00,276.1097,4.4,12.65,47.84626,-54.09684
2020-12-19 12:19:01+00:00,283.1564,4.7,12.65,47.84626,-54.09684
2020-12-19 12:29:01+00:00,288.1697,4.7,12.65,47.84626,-54.09684
2020-12-19 12:39:01+00:00,290.9947,4.7,12.65,47.84626,-54.09684
2020-12-19 12:49:01+00:00,301.8331,4.69,12.65,47.84626,-54.09684
2020-12-19 12:59:01+00:00,316.2164,4.6,12.65,47.84626,-54.09684
2020-12-19 13:09:01+00:00,322.3979,4.6,12.65,47.84626,-54.09684
2020-12-19 13:19:01+00:00,324.463,4.5,13.29,47.84626,-54.09684
2020-12-19 13:29:01+00:00,331.1597,4.47,13.29,47.84626,-54.09684
2020-12-19 13:39:01+00:00,337.9246,4.3,13.29,47.84626,-54.09684
2020-12-19 13:49:01+00:00,338.9663,4.3,13.29,47.84626,-54.09684
2020-12-19 13:59:01+00:00,341.0862,4.3,13.29,47.84626,-54.09684
2020-12-19 14:09:01+00:00,344.5229,4.37,13.29,47.84626,-54.09684
2020-12-19 14:19:01+00:00,349.2563,4.4,13.29,47.84626,-54.09684
2020-12-19 14:29:01+00:00,354.093,4.4,13.29,47.84626,-54.09684
2020-12-19 14:39:01+00:00,360.588,4.4,13.29,47.84626,-54.09684
2020-12-19 14:49:01+00:00,364.0764,4.4,13.29,47.84626,-54.09684
2020-12-19 14:59:01+00:00,365.3513,4.45,13.29,47.84626,-54.09684
2020-12-19 15:09:01+00:00,366.1113,4.5,13.29,47.84626,-54.09684
2020-12-19 15:19:01+00:00,365.0546,4.5,13.21,47.84626,-54.09684
2020-12-19 15:29:01+00:00,362.6047,4.48,13.21,47.84626,-54.09684
2020-12-19 15:39:01+00:00,364.7963,4.58,13.21,47.84626,-54.09684
2020-12-19 15:49:01+00:00,368.0197,4.57,13.21,47.84626,-54.09684
2020-12-19 15:59:01+00:00,367.948,4.58,13.21,47.84626,-54.09684
2020-12-19 16:09:01+00:00,364.353,4.45,13.21,47.84626,-54.09684
2020-12-19 16:19:01+00:00,364.1096,4.5,13.53,47.84626,-54.09684
2020-12-19 16:29:01+00:00,365.0229,4.5,13.53,47.84626,-54.09684
2020-12-19 16:39:01+00:00,360.44800000000004,4.5,13.53,47.84626,-54.09684
2020-12-19 16:49:01+00:00,358.0745,4.5,13.53,47.84626,-54.09684
2020-12-19 16:59:01+00:00,354.9346,4.5,13.53,47.84626,-54.09684
2020-12-19 17:09:01+00:00,343.2296,4.5,13.53,47.84626,-54.09684
2020-12-19 17:19:01+00:00,338.5063,4.53,13.44,47.84626,-54.09684
2020-12-19 17:29:01+00:00,337.958,4.59,13.44,47.84626,-54.09684
2020-12-19 17:39:01+00:00,331.4597,4.5,13.44,47.84626,-54.09684
2020-12-19 17:49:01+00:00,322.528,4.71,13.44,47.84626,-54.09684
2020-12-19 17:59:01+00:00,319.5113,4.92,13.44,47.84626,-54.09684
2020-12-19 18:09:01+00:00,312.143,4.9,13.44,47.84626,-54.09684
2020-12-19 18:19:01+00:00,299.248,4.7,13.76,47.84626,-54.09684
2020-12-19 18:29:01+00:00,293.2197,4.65,13.76,47.84626,-54.09684
2020-12-19 18:39:01+00:00,286.163,4.7,13.76,47.84626,-54.09684
2020-12-19 18:49:01+00:00,271.9314,4.57,13.76,47.84626,-54.09684
2020-12-19 18:59:01+00:00,260.8081,4.5,13.76,47.84626,-54.09684
2020-12-19 19:09:01+00:00,255.7681,4.6,13.76,47.84626,-54.09684
2020-12-19 19:19:01+00:00,243.663,4.6,13.29,47.84626,-54.09684
2020-12-19 19:29:01+00:00,230.1464,4.61,13.29,47.84626,-54.09684
2020-12-19 19:39:01+00:00,228.3847,4.8,13.29,47.84626,-54.09684
2020-12-19 19:49:01+00:00,224.7064,4.88,13.29,47.84626,-54.09684
2020-12-19 19:59:01+00:00,214.3564,4.6,13.29,47.84626,-54.09684
2020-12-19 20:09:01+00:00,209.5198,4.8,13.29,47.84626,-54.09684
2020-12-19 20:19:01+00:00,210.9981,4.8,12.97,47.84626,-54.09684
2020-12-19 20:29:01+00:00,205.6131,4.85,12.97,47.84626,-54.09684
2020-12-19 20:39:01+00:00,202.4465,4.8,12.97,47.84626,-54.09684
2020-12-19 20:49:01+00:00,206.9898,4.8,12.97,47.84626,-54.09684
2020-12-19 20:59:01+00:00,208.4648,4.7,12.97,47.84626,-54.09684
2020-12-19 21:09:01+00:00,209.1515,4.75,12.97,47.84626,-54.09684
2020-12-19 21:19:01+00:00,216.0331,4.7,12.81,47.84626,-54.09684
2020-12-19 21:29:01+00:00,222.7898,4.7,12.81,47.84626,-54.09684
2020-12-19 21:39:01+00:00,219.1264,4.6,12.81,47.84626,-54.09684
2020-12-19 21:49:01+00:00,219.8615,4.59,12.81,47.84626,-54.09684
2020-12-19 21:59:01+00:00,230.1531,4.66,12.81,47.84626,-54.09684
2020-12-19 22:09:01+00:00,234.2981,4.79,12.81,47.84626,-54.09684
2020-12-19 22:19:01+00:00,236.4548,4.8,12.73,47.84626,-54.09684
2020-12-19 22:29:01+00:00,237.0197,4.79,12.73,47.84626,-54.09684
2020-12-19 22:39:01+00:00,240.1864,4.7,12.73,47.84626,-54.09684
2020-12-19 22:49:01+00:00,245.6781,4.5,12.73,47.84626,-54.09684
2020-12-19 22:59:01+00:00,249.7297,4.47,12.73,47.84626,-54.09684
2020-12-19 23:09:01+00:00,248.1714,4.5,12.73,47.84626,-54.09684
2020-12-19 23:19:01+00:00,243.8681,4.58,12.73,47.84626,-54.09684
2020-12-19 23:29:01+00:00,246.7747,4.55,12.73,47.84626,-54.09684
2020-12-19 23:39:01+00:00,252.4164,4.5,12.73,47.84626,-54.09684
2020-12-19 23:49:01+00:00,251.9364,4.59,12.73,47.84626,-54.09684
2020-12-19 23:59:01+00:00,248.5031,4.59,12.73,47.84626,-54.09684
